Location: Unspecified
(35.7250°N, 0.0000°E)
Time: 06:55:17
(UTC+00:00)

Tiros 1 - Pass Details

Date: 03 July 2019
Orbit: 630 x 664 km, 48.4° (Epoch: 15 July)

Event Time Altitude Azimuth Distance (km) Brightness Sun altitude
Rises 00:46:33 0° 309° (NW) 2,948 10.9 -30.4°
Reaches altitude 10° 00:48:57 10° 314° (NW) 2,031 10.0 -30.3°
Enters shadow 00:51:38 32° 331° (NNW) 1,102 8.6 -30.2°
